Wind_Speed
12 11 8 4 2 0 3 4 2 4 3 3 6 4 7 2 5 2 1 19 16 20 20 19 20 20 23 23 22 21 22 24 25 26 29 29 30 30 29 28 27 27 26 22 22 23 23 22 26
16 13 4 3 3 4 4 3 7 8 3 3 4 4 3 4 2 2 10 17 18 22 22 21 21 21 22 22 22 22 22 23 25 27 29 29 29 30 29 27 27 26 26 25 22 20 21 25 28
14 6 3 3 3 7 4 6 7 3 8 4 3 3 2 2 4 7 7 22 21 22 23 23 22 24 23 22 22 23 23 23 26 28 29 31 30 30 28 27 24 25 23 22 21 20 21 25 25
5 2 3 3 12 5 5 2 4 7 1 4 2 3 1 3 4 10 15 25 24 23 24 24 24 25 24 24 23 22 22 24 26 28 30 30 30 30 25 27 24 23 20 22 24 22 25 26 25
4 1 3 4 8 4 8 6 7 9 5 3 2 2 3 3 5 12 19 28 26 23 23 24 25 24 22 24 24 24 22 22 25 27 29 29 30 30 29 27 21 21 19 20 24 25 27 27 27
3 1 3 13 13 4 6 6 3 5 7 4 4 8 4 2 8 15 21 27 25 23 22 21 23 24 23 22 23 23 24 24 24 25 27 28 27 28 27 27 30 17 22 24 26 28 30 29 29
4 4 6 4 7 5 5 6 5 4 2 1 2 5 2 3 8 16 21 24 24 22 21 20 23 22 22 22 22 22 22 25 26 27 26 26 25 25 28 28 23 23 23 22 25 28 31 31 30
3 3 5 6 14 10 5 7 4 5 3 3 3 1 2 3 8 13 20 21 21 21 21 22 23 23 22 22 22 22 23 24 25 27 27 26 25 24 25 24 24 26 24 20 24 29 31 32 32
4 5 10 14 10 7 4 3 1 1 2 4 0 2 4 1 11 11 13 18 19 22 23 24 24 24 24 24 22 22 23 21 22 23 24 25 24 25 24 24 24 26 22 21 26 32 31 33 33
6 8 13 6 10 5 2 3 2 2 4 4 4 1 3 4 12 15 17 18 19 23 26 25 25 24 23 23 23 25 25 25 25 27 25 28 27 26 26 26 27 25 19 21 24 28 29 32 31
7 15 7 7 11 5 8 8 4 5 9 8 8 4 2 5 9 16 19 22 25 21 22 28 27 25 25 24 24 24 26 28 28 27 30 31 29 28 29 30 25 22 22 23 23 26 29 32 32
7 8 11 4 7 7 9 5 8 10 11 13 10 6 6 9 12 18 22 25 22 22 23 27 30 28 26 25 28 27 27 28 30 31 30 32 31 30 30 27 26 24 26 26 27 29 33 32 33
9 9 7 11 13 10 9 16 17 12 12 15 10 9 12 12 16 20 24 19 20 24 24 30 32 31 29 28 29 29 29 31 28 29 30 31 33 35 30 30 23 19 22 28 32 32 35 34 27
4 11 15 13 16 9 14 18 7 8 15 14 10 14 12 10 14 13 17 24 23 26 27 26 30 32 30 31 29 28 27 29 28 28 30 33 33 33 32 27 20 19 23 29 37 39 40 34 23
4 8 9 11 9 8 6 16 15 18 16 16 16 13 12 11 9 16 21 22 27 29 27 31 34 34 33 29 30 28 27 28 28 27 27 29 28 30 28 27 21 19 20 34 41 42 39 32 23
4 4 9 4 15 9 10 22 4 1 9 9 10 8 7 6 7 13 16 21 23 25 27 32 34 38 37 34 33 31 30 28 27 28 28 26 26 27 23 23 22 23 25 31 42 40 38 34 25
5 8 5 4 11 7 16 17 2 5 2 4 4 5 7 10 11 16 17 19 21 25 28 28 31 37 38 32 34 31 30 28 27 24 27 26 27 24 21 23 25 28 29 28 30 37 37 29 24
12 7 8 9 4 7 12 16 10 12 5 6 10 11 11 12 15 15 14 17 22 23 24 26 29 32 34 32 30 27 28 27 27 25 26 24 25 26 26 25 28 31 32 33 37 39 37 32 29
5 12 15 3 2 4 13 18 11 10 13 14 15 13 13 14 14 8 12 18 20 20 19 23 26 28 33 33 29 27 27 27 26 25 24 25 25 27 27 29 29 27 38 41 37 37 42 25 26
15 17 14 5 7 7 16 21 15 13 17 19 16 14 14 10 9 11 15 14 14 16 18 21 25 28 33 31 29 20 24 23 25 25 25 26 27 27 27 30 30 30 32 42 45 39 30 24 30
14 18 13 13 4 7 8 19 14 5 11 11 11 11 6 6 7 12 13 17 15 16 16 18 23 25 30 27 26 17 21 15 22 23 22 25 27 25 26 28 29 29 33 35 43 40 32 22 26
16 11 12 10 5 8 2 8 5 10 7 4 6 3 3 5 7 11 14 14 17 17 16 17 20 25 28 29 28 25 23 18 18 21 20 23 24 24 29 30 31 35 34 35 36 38 31 32 25
8 9 12 11 10 6 8 6 2 3 6 1 1 5 3 7 10 12 14 18 23 12 15 18 21 25 28 30 27 25 19 15 13 15 15 22 23 23 30 29 32 37 37 41 44 42 37 38 31
7 5 3 3 3 6 10 9 3 7 6 2 2 2 4 7 10 12 17 20 21 10 13 17 22 26 29 29 28 29 22 18 16 15 17 17 23 23 25 30 32 42 41 39 37 37 36 36 34
6 7 3 4 5 6 9 9 7 4 1 3 2 5 6 8 10 12 16 17 22 17 16 18 23 26 29 30 31 29 22 18 17 17 17 18 22 22 19 32 36 42 45 46 39 35 32 33 32
11 11 5 6 5 1 5 6 2 2 8 4 2 4 7 9 10 13 14 16 22 25 19 21 24 25 28 30 29 25 21 18 16 16 14 16 17 18 19 29 33 38 40 39 38 35 33 37 32
5 9 1 2 2 2 4 5 4 6 3 2 2 2 8 12 14 16 16 17 25 27 18 22 23 24 26 26 25 23 21 19 18 16 16 16 15 16 20 26 31 34 38 34 36 34 37 39 38
5 8 6 2 4 6 5 6 5 10 6 4 2 6 9 11 16 16 16 18 29 28 18 22 24 24 25 25 21 21 20 19 17 16 17 15 13 14 16 23 31 36 36 40 42 39 35 39 38
5 4 2 3 4 3 3 2 3 5 3 2 3 2 7 12 16 18 18 29 32 29 18 23 25 24 25 25 22 22 19 19 17 16 16 16 14 12 14 21 28 31 32 37 38 40 38 34 35
3 7 9 4 4 4 6 7 2 4 6 3 3 3 5 11 16 17 18 24 35 14 18 21 22 23 24 24 21 21 17 18 18 17 17 16 17 15 15 20 25 28 29 36 38 37 37 36 31
Wind_Direction
162 154 143 66 189 306 247 246 290 237 232 198 144 171 192 172 169 202 153 165 163 169 173 176 177 176 171 171 169 168 170 177 181 180 179 178 173 167 165 160 156 157 155 147 149 149 150 151 150
151 141 79 102 178 214 231 230 235 235 255 275 185 157 175 204 215 137 130 169 167 172 175 176 179 179 175 175 171 170 172 178 183 183 182 179 174 170 168 164 160 158 159 152 152 152 150 153 154
146 144 136 161 178 220 222 203 202 284 287 228 197 227 192 183 175 181 183 171 170 175 178 180 180 180 180 180 178 174 174 179 185 186 185 182 179 176 171 164 165 160 161 159 159 161 160 160 160
151 95 82 217 227 229 225 215 187 324 4 238 286 237 223 219 167 176 177 173 173 178 180 180 183 183 184 183 182 182 181 183 187 188 186 184 180 179 177 165 167 165 164 166 165 167 165 165 162
72 89 174 228 241 244 240 249 270 292 295 271 249 261 239 198 217 183 178 179 180 182 183 182 184 184 185 189 187 187 187 187 189 187 187 185 186 186 177 172 178 169 169 184 173 172 171 166 166
119 143 196 230 234 222 252 244 227 265 284 312 232 233 250 172 174 177 180 184 186 186 186 184 188 187 188 190 193 193 190 191 191 188 188 186 188 186 184 181 179 209 180 188 185 179 175 169 170
181 172 223 240 260 254 237 219 220 200 276 109 259 212 243 221 184 179 179 182 185 190 192 189 191 192 193 195 198 196 198 194 195 197 197 198 197 196 189 192 199 189 188 187 192 185 181 170 173
155 205 190 225 246 265 226 176 182 171 174 319 203 25 322 14 185 180 177 181 188 193 199 198 196 193 194 197 200 203 203 199 199 200 199 199 199 200 199 201 196 192 191 198 198 190 185 172 173
138 225 225 226 223 231 200 185 160 34 271 337 220 344 321 333 167 167 172 186 193 200 204 204 201 198 197 197 201 209 209 210 206 206 205 201 199 197 200 202 200 198 207 208 198 193 188 175 174
196 223 224 221 224 244 192 201 177 302 332 290 293 282 16 160 175 186 194 199 201 204 206 207 206 201 197 196 199 212 214 217 212 207 206 202 202 198 204 199 196 208 216 201 197 202 195 178 170
199 236 217 218 227 225 256 256 220 256 278 256 278 327 228 208 206 211 215 218 210 207 209 209 209 206 202 197 196 210 217 216 217 213 210 206 204 202 196 193 202 212 207 208 199 200 190 176 172
226 232 230 224 228 227 241 252 243 224 252 268 256 276 256 225 222 217 219 224 218 210 210 211 211 209 208 206 202 205 216 219 220 220 215 212 209 203 203 209 221 224 218 210 202 189 181 179 183
238 232 208 231 249 246 252 250 255 250 245 265 261 269 250 237 232 231 231 233 229 228 217 215 213 210 209 211 211 208 211 219 213 219 225 217 211 208 216 225 230 221 217 209 198 181 177 175 174
204 225 251 249 248 250 257 257 237 226 239 263 256 264 258 248 242 241 230 231 228 234 231 221 216 213 209 213 214 209 208 213 217 224 223 223 225 219 221 229 221 219 219 205 199 187 178 176 173
234 257 256 238 240 238 230 261 249 249 236 236 253 259 272 261 255 232 239 239 234 236 235 228 221 214 212 210 213 209 206 212 217 221 224 222 223 224 229 223 219 216 212 210 192 182 176 184 170
214 204 248 200 205 218 204 262 217 230 201 233 252 270 274 261 267 258 250 243 246 243 234 232 221 217 210 210 211 210 210 212 218 222 223 223 225 225 215 214 216 213 207 182 175 164 171 172 171
216 236 209 241 191 194 209 267 256 112 61 264 262 266 277 287 277 266 261 252 255 246 241 227 214 213 206 204 212 212 213 214 216 220 229 228 229 217 210 213 212 202 185 171 155 159 171 169 171
233 233 243 237 173 222 237 249 265 299 321 296 292 284 282 274 270 272 278 272 270 260 244 226 211 206 199 198 204 206 211 213 217 224 226 227 230 219 213 216 212 189 179 177 177 170 176 177 172
257 238 250 219 228 277 255 266 273 277 285 272 265 262 263 260 267 287 278 286 281 270 232 213 200 198 189 190 186 195 199 206 214 219 225 228 222 215 211 212 211 191 188 182 173 164 166 166 162
232 248 247 259 268 267 276 278 285 261 258 257 258 257 255 263 295 313 316 290 269 259 230 211 204 195 193 191 190 192 191 204 209 219 222 223 212 217 216 217 217 211 191 180 180 166 161 162 165
221 234 243 247 259 264 280 283 263 248 243 254 244 255 263 285 316 332 334 323 284 254 230 212 204 196 196 190 181 177 184 195 202 212 211 211 212 221 222 218 206 192 184 171 168 165 167 154 174
233 214 223 228 246 256 219 288 273 285 246 228 246 289 341 354 349 343 336 326 320 269 230 214 209 195 193 183 180 184 188 195 202 208 208 212 215 222 215 209 201 180 164 162 164 165 162 166 173
230 183 198 206 221 254 230 272 291 189 239 251 138 97 26 354 343 333 335 328 330 270 221 207 197 199 191 185 185 182 193 196 193 195 199 213 215 210 212 207 201 177 176 174 178 184 181 185 184
157 131 114 101 157 244 210 221 209 219 227 137 100 38 1 352 343 339 340 341 342 296 224 203 192 198 191 183 183 183 187 189 193 198 207 205 210 206 208 207 200 185 182 180 180 182 181 184 190
159 159 182 188 205 243 200 215 260 236 97 133 23 5 348 339 340 343 344 344 332 315 235 209 196 196 192 184 185 185 188 189 193 193 196 201 209 212 194 194 197 195 192 189 185 185 188 192 192
186 186 189 203 202 204 139 229 231 172 129 111 70 338 338 339 337 335 342 339 328 328 240 212 202 195 194 188 188 183 186 187 190 192 200 206 206 206 202 201 201 199 191 186 190 187 188 186 191
181 212 216 36 95 286 221 230 230 159 158 143 137 348 358 351 339 332 331 337 328 327 254 213 202 197 193 195 182 186 182 185 192 193 197 199 202 200 201 207 203 201 192 186 186 186 189 194 193
188 156 167 207 215 230 231 236 226 205 201 179 324 350 357 346 337 335 324 333 324 315 257 207 197 194 189 189 191 190 180 185 191 186 189 189 192 195 193 203 204 200 189 189 185 185 190 187 196
181 220 153 196 229 263 294 239 224 177 219 243 254 310 355 344 340 335 335 336 322 304 228 200 191 188 184 182 188 187 179 185 186 185 187 188 188 202 196 200 199 194 190 187 185 187 189 189 196
174 187 198 217 192 226 263 276 105 7 293 281 287 294 354 352 351 348 350 337 317 262 190 191 183 184 181 179 178 179 178 183 184 187 189 186 188 207 196 197 196 192 189 188 187 188 191 194 191
Height
777 779 780 781 794 798 799 787 784 778 773 762 759 762 760 757 766 774 753 756 758 761 764 767 770 772 776 778 780 782 784 787 789 791 794 797 799 801 805 806 810 812 814 819 823 823 824 826 829
776 779 780 787 795 798 786 784 780 770 760 758 758 759 761 759 755 755 755 756 759 761 763 765 769 773 777 780 781 783 785 786 789 791 794 798 800 803 805 808 811 813 816 817 821 825 827 828 830
777 778 779 784 797 789 781 776 766 765 760 758 757 753 753 753 752 752 752 755 758 761 763 766 769 772 775 781 783 783 785 787 789 792 794 796 800 803 804 808 813 814 816 819 821 824 827 829 832
777 780 788 788 784 786 778 765 766 766 758 757 754 755 749 748 748 749 751 754 757 760 763 765 768 771 773 778 783 784 785 787 789 792 794 797 800 804 808 808 812 813 817 819 819 823 825 829 832
777 781 787 788 783 779 771 766 766 763 764 760 755 754 752 746 747 748 750 753 756 759 762 764 767 771 774 777 780 783 785 788 791 793 795 797 800 803 805 809 814 815 814 822 818 820 823 828 832
777 782 788 779 769 776 766 760 762 760 757 759 760 755 750 745 746 747 750 753 757 760 763 765 769 771 773 776 779 781 785 787 790 793 796 797 800 803 807 810 810 811 815 819 820 819 822 825 829
773 779 778 782 773 776 766 756 761 756 758 757 753 755 746 746 746 747 749 754 757 760 764 766 768 771 774 775 780 781 783 786 789 792 795 797 800 803 806 808 811 813 814 819 822 822 823 823 829
772 773 783 777 765 763 757 755 749 751 752 749 748 754 750 748 748 749 751 754 757 760 763 765 767 769 772 775 778 781 783 784 787 790 793 795 798 802 805 808 810 813 815 819 821 822 824 822 828
773 775 773 765 769 758 754 755 751 751 751 750 746 747 748 746 748 752 753 753 755 758 760 763 765 767 769 772 776 779 782 785 785 789 791 795 797 800 803 806 809 812 814 817 818 821 822 823 830
765 767 761 758 756 756 754 755 754 753 753 751 749 747 747 748 748 749 751 750 751 752 755 760 763 765 768 770 774 777 780 783 784 786 790 792 795 797 800 804 808 811 813 816 820 821 822 826 830
759 751 757 754 752 753 754 754 751 753 752 747 747 746 747 748 748 748 748 748 746 750 753 756 760 763 766 767 770 774 777 779 782 784 786 789 792 794 797 801 805 808 812 816 819 820 822 825 830
758 753 751 749 748 751 752 749 749 748 745 738 742 744 744 744 744 743 743 744 746 747 749 752 756 760 763 765 767 769 772 776 778 781 783 786 789 792 795 798 801 805 807 812 816 819 821 825 830
753 750 749 747 746 748 748 745 744 744 741 734 739 740 740 739 738 738 739 743 745 745 746 746 751 754 758 761 763 764 767 772 775 778 780 782 785 788 791 794 797 800 804 808 811 815 819 823 830
742 744 743 743 744 745 745 739 743 737 733 734 734 733 731 733 732 734 736 735 738 738 741 743 745 749 753 756 759 759 762 768 772 774 776 779 781 784 786 790 794 796 799 802 805 810 814 820 830
740 745 742 741 742 742 740 735 734 725 726 728 727 728 729 728 729 727 727 730 730 730 734 736 739 743 747 752 755 757 758 763 767 770 772 776 778 780 782 786 789 792 795 797 800 805 811 820 827
738 741 742 732 735 734 736 720 723 717 722 725 727 726 727 725 724 723 722 724 724 725 726 727 731 735 739 745 749 753 755 759 763 766 769 772 774 776 779 782 785 788 790 793 792 796 807 817 824
742 736 745 738 731 728 731 717 718 719 722 724 726 725 725 723 721 719 717 717 717 717 717 719 723 726 732 740 743 748 751 755 759 762 765 768 771 774 777 779 782 784 786 791 789 795 806 816 824
742 746 742 735 729 731 726 724 722 717 722 725 723 721 720 717 713 712 713 712 711 710 710 713 716 720 726 733 739 745 748 751 754 758 761 765 767 770 773 776 778 778 783 787 793 797 807 816 822
738 737 734 736 731 729 725 721 724 721 718 719 717 716 714 711 706 709 709 706 705 703 703 704 709 714 721 726 731 738 741 746 749 753 757 760 763 765 769 771 775 776 780 783 792 795 798 816 821
738 738 736 738 733 732 724 719 717 718 712 706 707 708 706 706 705 704 703 702 700 698 697 699 703 708 713 719 726 732 737 741 745 749 752 755 758 761 764 767 770 773 777 779 787 793 802 810 815
735 736 736 739 736 732 731 714 708 707 708 703 702 702 705 707 706 702 699 697 695 693 694 696 698 702 710 715 722 728 734 739 741 745 747 750 754 757 760 764 765 768 772 776 778 787 795 801 813
734 730 732 736 741 739 730 717 710 703 701 699 695 699 703 704 703 700 697 692 690 689 690 692 696 698 704 709 715 722 725 731 734 739 743 747 750 753 756 758 761 764 771 776 779 786 792 798 809
726 726 727 730 737 737 731 732 710 708 701 697 696 700 702 703 702 700 696 691 685 682 683 687 690 696 699 704 710 715 723 728 732 737 740 742 747 749 752 755 759 760 768 773 778 785 792 798 807
715 725 730 736 737 737 727 721 709 701 697 696 701 700 701 701 698 694 690 685 681 681 682 685 687 691 696 700 705 709 718 723 729 733 736 739 742 746 749 752 756 759 766 770 777 783 788 793 804
713 721 732 738 738 722 716 724 698 697 698 698 698 697 698 696 693 689 685 681 678 678 680 681 685 688 692 696 700 704 712 719 724 729 733 735 739 742 744 747 751 756 761 766 774 780 787 794 799
713 710 714 724 724 713 720 714 696 695 700 700 699 697 694 691 690 686 682 680 677 673 674 677 681 685 690 693 697 702 709 715 721 726 729 733 736 739 742 744 747 753 757 762 769 775 782 787 795
713 715 709 715 719 719 707 703 698 702 701 701 699 696 692 688 685 682 679 676 673 670 670 673 678 683 686 694 695 700 704 711 718 722 726 730 733 736 738 741 744 748 754 759 765 772 777 784 789
701 704 716 720 722 719 703 704 697 700 696 695 691 690 690 689 685 680 675 670 670 667 666 670 674 679 684 690 696 699 700 708 715 719 724 728 731 733 736 738 741 744 748 754 760 767 776 780 788
707 707 707 707 710 707 708 698 692 691 690 690 689 690 692 690 685 679 671 667 664 661 660 665 670 675 679 685 692 696 699 706 713 717 722 726 729 733 734 735 738 741 746 750 755 761 768 775 783
696 699 701 706 711 706 703 698 690 693 689 690 690 690 691 691 686 681 672 669 656 649 655 661 666 671 677 682 689 693 699 706 711 715 720 724 726 732 733 734 737 740 744 748 751 757 765 772 777